Location: Unspecified
(0.0000°N, 0.0000°E)
Time: 05:25:13
(UTC+00:00)

Envisat - Pass Details

Date: 11 June 2023
Orbit: 763 x 764 km, 98.2° (Epoch: 02 October)

Event Time Altitude Azimuth Distance (km) Brightness Sun altitude
Rises 04:18:36 0° 345° (NNW) 3,212 6.3 -23.1°
Reaches altitude 10° 04:21:27 10° 328° (NNW) 2,290 5.4 -22.5°
Enters shadow 04:22:52 15° 314° (NW) 1,948 4.9 -22.1°
